weather.gov     
National Weather Service

Terminal Aerodrome Forecast
NWS Homepage
This page is being discontinued on March 12, 2014.
The same data is available at this site. Please update your bookmarks.
Thank you, and we apologize for the inconvenience.
Please send an email to SR-SRH.Webmaster@noaa.gov with any concerns.


Current Version
Previous Version:    01  02  03  04  05  06  07  08  09  10  11  12  13  14  15  16  17  18  19  20  21  22  23  24  25  26  27  28  29  30  
   31  32  33  34  35  36  37  38  39  40  41  
[Printable]
973
FTUS41 KCLE 291700
TAFCAK
TAF
KCAK 291729Z 2918/3018 22015G25KT P6SM VCSH BKN030 OVC040
      TEMPO 2918/2919 5SM -FZRAPL OVC020
     FM291900 19015G21KT P6SM VCSH SCT009 OVC020
      TEMPO 2921/2923 2SM -RASN OVC006
     FM292300 24012G20KT 3/4SM -SN BR OVC002
     FM300400 29012G22KT 3SM -SN BKN006 OVC012
     FM301300 31014G24KT P6SM SCT008 OVC015=


U.S. Dept. of Commerce
NOAA National Weather Service
1325 East West Highway
Silver Spring, MD 20910
E-mail: w-nws.webmaster@noaa.gov
Page last modified: May 16, 2007
NATIONAL WEATHER SERVICE: for Safety, for Work, for Fun - FOR LIFE